South Hill, VA

8:27 AM EST on December 13, 2019 (GMT -0500)
Mecklenburg-Brunswick Regional

Weather History for KAVC - September, 2019

Change the Weather History Date:

Monday, September 23, 2019

  Actual Average (KEMV) Record (KEMV)
Temperature  
Mean Temperature 76 °F -  
Max Temperature 91 °F 79 °F 95 °F (2010)
Min Temperature 63 °F 54 °F 39 °F (1983)
Cooling Degree Days 12    
Growing Degree Days 26 (Base 50)    
Moisture  
Dew Point 63 °F    
Average Humidity 67    
Maximum Humidity 98    
Minimum Humidity 34    
Precipitation  
Precipitation 0.00 in - - ()
Sea Level Pressure  
Sea Level Pressure 30.05 in    
Wind  
Wind Speed 7 mph (SSW)    
Max Wind Speed 15 mph    
Max Gust Speed 20 mph    
Averages and records for this station are not official NWS values.
T = Trace of Precipitation, MM = Missing Value Source: NWS Daily Summary

Daily Weather History Graph

Daily Weather History Graph

Search for Another Location

Airport or City:

Astronomy

Sep. 23, 2019 Rise Set
Actual Time 7:00 AM EDT 7:07 PM EDT
Civil Twilight 6:34 AM EDT 7:33 PM EDT
Nautical Twilight 6:04 AM EDT 8:03 PM EDT
Astronomical Twilight 5:34 AM EDT 8:34 PM EDT
Moon 12:51 AM EDT (9/23) 3:49 PM EDT (9/23)
Length of Visible Light 12h 58m
Length of Day
12h 07m
Waning Crescent, 33% of the Moon is Illuminated
Sep 23
Waning Crescent
Sep 28
New
Oct 5
First Quarter
Oct 13
Full
Oct 21
Last Quarter

Hourly Weather History & Observations

Time (EDT) Temp. Heat Index Dew Point Humidity Pressure Visibility Wind Dir Wind Speed Gust Speed Precip Events Conditions
12:15 AM 71.6 °F - 65.5 °F 81% 30.15 in - SSW 8.1 mph - N/A   Clear
12:35 AM 70.7 °F - 65.5 °F 83% 30.15 in - SSW 8.1 mph - N/A   Clear
12:55 AM 70.0 °F - 65.5 °F 86% 30.15 in - SSW 6.9 mph - N/A   Unknown
1:15 AM 69.1 °F - 65.5 °F 88% 30.15 in - South 6.9 mph - N/A   Unknown
1:35 AM 68.9 °F - 65.5 °F 89% 30.15 in - South 6.9 mph - N/A   Unknown
1:55 AM 68.5 °F - 65.5 °F 90% 30.14 in - SSW 6.9 mph - N/A   Unknown
2:15 AM 68.2 °F - 65.5 °F 91% 30.14 in - SSW 6.9 mph - N/A   Unknown
2:35 AM 68.5 °F - 65.3 °F 89% 30.13 in - SSW 6.9 mph - N/A   Unknown
2:55 AM 68.5 °F - 65.3 °F 89% 30.13 in - SSW 6.9 mph - N/A   Unknown
3:15 AM 68.2 °F - 65.1 °F 90% 30.13 in - SSW 5.8 mph - N/A   Unknown
3:35 AM 67.6 °F - 65.1 °F 92% 30.13 in - SSW 6.9 mph - N/A   Unknown
3:55 AM 67.5 °F - 64.8 °F 91% 30.12 in - SSW 6.9 mph - N/A   Unknown
4:15 AM 67.1 °F - 64.4 °F 91% 30.12 in - SSW 5.8 mph - N/A   Unknown
4:35 AM 66.4 °F - 64.0 °F 92% 30.12 in - SSW 6.9 mph - N/A   Unknown
4:55 AM 66.6 °F - 64.0 °F 92% 30.12 in - SSW 5.8 mph - N/A   Unknown
5:15 AM 65.3 °F - 63.5 °F 94% 30.12 in - SSW 5.8 mph - N/A   Unknown
5:35 AM 65.1 °F - 63.5 °F 94% 30.11 in - SSW 5.8 mph - N/A   Unknown
5:55 AM 64.6 °F - 63.1 °F 95% 30.11 in - SSW 5.8 mph - N/A   Unknown
6:15 AM 64.2 °F - 63.0 °F 96% 30.11 in - SSW 4.6 mph - N/A   Unknown
6:35 AM 64.2 °F - 63.0 °F 96% 30.11 in - SSW 4.6 mph - N/A   Unknown
6:55 AM 63.9 °F - 63.0 °F 97% 30.11 in - SSW 5.8 mph - N/A   Unknown
7:15 AM 63.7 °F - 63.1 °F 98% 30.11 in - SSW 6.9 mph - N/A   Unknown
7:35 AM 65.1 °F - 63.5 °F 94% 30.11 in - SSW 5.8 mph - N/A   Unknown
7:55 AM 66.4 °F - 63.9 °F 92% 30.11 in - SSW 6.9 mph - N/A   Unknown
8:15 AM 68.2 °F - 64.0 °F 87% 30.12 in - SSW 6.9 mph - N/A   Unknown
8:35 AM 69.8 °F - 64.4 °F 83% 30.12 in - SSW 6.9 mph - N/A   Clear
8:55 AM 71.6 °F - 64.4 °F 78% 30.12 in - SW 6.9 mph - N/A   Clear
9:15 AM 73.2 °F - 64.6 °F 74% 30.12 in - SW 6.9 mph - N/A   Clear
9:35 AM 74.3 °F - 64.6 °F 72% 30.12 in - SW 6.9 mph - N/A   Clear
9:55 AM 75.6 °F - 64.8 °F 69% 30.11 in - SW 5.8 mph - N/A   Clear
10:15 AM 77.7 °F - 64.8 °F 64% 30.11 in - SSW 6.9 mph - N/A   Clear
10:35 AM 79.3 °F - 64.4 °F 60% 30.11 in - WSW 6.9 mph - N/A   Clear
10:55 AM 80.4 °F 82.1 °F 64.2 °F 58% 30.10 in - West 5.8 mph - N/A   Clear
11:15 AM 81.9 °F 83.4 °F 64.0 °F 55% 30.09 in - South 4.6 mph - N/A   Clear
11:35 AM 83.7 °F 84.9 °F 63.7 °F 51% 30.09 in - SW 5.8 mph - N/A   Clear
11:55 AM 84.4 °F 85.4 °F 63.5 °F 49% 30.08 in - West 4.6 mph - N/A   Clear
12:15 PM 86.0 °F 86.6 °F 62.6 °F 45% 30.07 in - WSW 4.6 mph - N/A   Clear
12:35 PM 86.2 °F 86.3 °F 61.3 °F 43% 30.06 in - WSW 6.9 mph - N/A   Clear
12:55 PM 88.2 °F 88.1 °F 60.8 °F 40% 30.05 in - South 4.6 mph - N/A   Clear
1:15 PM 88.0 °F 87.9 °F 60.8 °F 40% 30.04 in - SW 5.8 mph - N/A   Clear
1:35 PM 88.5 °F 87.5 °F 58.5 °F 36% 30.03 in - West 6.9 mph - N/A   Clear
1:55 PM 89.8 °F 88.9 °F 59.0 °F 35% 30.02 in - SW 6.9 mph - N/A   Clear
2:15 PM 89.2 °F 88.7 °F 59.9 °F 37% 30.01 in - WSW 9.2 mph - N/A   Mostly Cloudy
2:35 PM 90.7 °F 89.8 °F 59.0 °F 34% 30.00 in - Calm Calm - N/A   Scattered Clouds
2:55 PM 90.9 °F 90.0 °F 59.2 °F 34% 29.99 in - South 11.5 mph - N/A   Clear
3:15 PM 89.8 °F 89.1 °F 59.2 °F 36% 29.99 in - SSW 15.0 mph 19.6 mph N/A   Clear
3:35 PM 90.5 °F 89.8 °F 59.7 °F 35% 29.98 in - SSW 10.4 mph - N/A   Clear
3:55 PM 90.3 °F 89.3 °F 58.6 °F 34% 29.97 in - WSW 6.9 mph - N/A   Clear
4:35 PM 90.0 °F 89.1 °F 58.6 °F 35% 29.96 in - WSW 5.8 mph - N/A   Clear
4:55 PM 90.3 °F 89.3 °F 58.6 °F 34% 29.96 in - WSW 4.6 mph - N/A   Clear
5:15 PM 90.0 °F 89.1 °F 58.6 °F 35% 29.96 in - SW 9.2 mph - N/A   Clear
5:35 PM 89.6 °F 88.6 °F 58.5 °F 35% 29.96 in - SW 6.9 mph - N/A   Clear
5:55 PM 88.7 °F 87.8 °F 58.5 °F 36% 29.96 in - SW 5.8 mph - N/A   Clear
6:15 PM 88.3 °F 87.6 °F 59.2 °F 37% 29.95 in - SSW 8.1 mph - N/A   Clear
6:35 PM 85.8 °F 85.4 °F 59.5 °F 41% 29.95 in - SSW 4.6 mph - N/A   Clear
7:15 PM 81.1 °F 82.1 °F 62.1 °F 52% 29.95 in - South 5.8 mph - N/A   Mostly Cloudy
7:35 PM 80.6 °F 81.8 °F 62.6 °F 54% 29.95 in - SSW 4.6 mph - N/A   Overcast
7:55 PM 79.9 °F - 62.8 °F 56% 29.95 in - South 4.6 mph - N/A   Overcast
8:15 PM 78.8 °F - 63.1 °F 59% 29.96 in - South 4.6 mph - N/A   Scattered Clouds
8:35 PM 78.1 °F - 64.0 °F 62% 29.96 in - South 6.9 mph - N/A   Mostly Cloudy
8:55 PM 78.1 °F - 64.4 °F 63% 29.96 in - South 9.2 mph - N/A   Mostly Cloudy
9:15 PM 77.0 °F - 64.8 °F 66% 29.96 in - South 6.9 mph - N/A   Scattered Clouds
9:35 PM 75.7 °F - 64.9 °F 69% 29.96 in - South 6.9 mph - N/A   Clear
9:55 PM 75.2 °F - 65.1 °F 71% 29.96 in - South 6.9 mph - N/A   Clear
10:15 PM 74.8 °F - 65.3 °F 72% 29.96 in - SSW 5.8 mph - N/A   Clear
10:35 PM 74.1 °F - 64.9 °F 73% 29.96 in - SSW 6.9 mph - N/A   Clear
11:15 PM 73.0 °F - 65.1 °F 76% 29.95 in - South 5.8 mph - N/A   Clear
11:35 PM 72.1 °F - 65.1 °F 78% 29.95 in - South 4.6 mph - N/A   Clear
11:55 PM 71.1 °F - 65.3 °F 82% 29.94 in - South 4.6 mph - N/A   Clear